When you browse on this site, cookies collect data to enhance your experience and personalize the content and advertising you see.
Visit our Privacy Policy to learn more. By continuing to use the site, you agree to this use of cookies and data.
  • In Hungary
  • List of Countries
  • For 7 days
  • Water Temperature
  • Weather Map
  • News
  • Weather Widgets
  • user-avatar
    Login

    Hourly Weather Gutatli

    Today, 20 October, Sunday

    Time Temperature Precipitation Wind Pressure Humidity
    00:00 +6°C° 0 mm 0 mps 602 mmHg 77%
    01:00 +6°C° 0 mm 0 mps 601 mmHg 77%
    02:00 +6°C° 0 mm 1 mps 601 mmHg 78%
    03:00 +6°C° 0 mm 1 mps 601 mmHg 79%
    04:00 +6°C° 0 mm 1 mps 601 mmHg 79%
    05:00 +6°C° 0 mm 1 mps 601 mmHg 79%
    06:00 +6°C° 0 mm 1 mps 602 mmHg 78%
    07:00 +8°C° 0 mm 1 mps 603 mmHg 72%
    08:00 +10°C° 0 mm 1 mps 604 mmHg 66%
    09:00 +11°C° 0 mm 0 mps 605 mmHg 60%
    10:00 +13°C° 0 mm 1 mps 605 mmHg 59%
    11:00 +14°C° 0 mm 1 mps 605 mmHg 57%
    12:00 +14°C° 0 mm 1 mps 605 mmHg 56%
    13:00 +14°C° 0.3 mm 1 mps 605 mmHg 59%
    14:00 +13°C° 0.3 mm 1 mps 605 mmHg 62%
    15:00 +13°C° 0.3 mm 1 mps 604 mmHg 65%
    16:00 +11°C° 0.3 mm 1 mps 604 mmHg 72%
    17:00 +10°C° 0.3 mm 1 mps 603 mmHg 79%
    18:00 +7°C° 0.3 mm 0 mps 603 mmHg 86%
    19:00 +7°C° 0.1 mm 0 mps 603 mmHg 87%
    20:00 +7°C° 0.1 mm 0 mps 603 mmHg 88%
    21:00 +6°C° 0.1 mm 0 mps 603 mmHg 89%
    22:00 +6°C° 0.1 mm 0 mps 603 mmHg 90%
    23:00 +6°C° 0.1 mm 0 mps 603 mmHg 91%

    Tomorrow, 21 October, Monday

    Time Temperature Precipitation Wind Pressure Humidity
    00:00 +6°C° 0.1 mm 0 mps 603 mmHg 92%
    01:00 +6°C° 0.1 mm 0 mps 603 mmHg 93%
    02:00 +6°C° 0.1 mm 0 mps 603 mmHg 93%
    03:00 +6°C° 0.1 mm 0 mps 603 mmHg 94%
    04:00 +6°C° 0 mm 0 mps 603 mmHg 94%
    05:00 +5°C° 0 mm 0 mps 602 mmHg 94%
    06:00 +5°C° 0 mm 0 mps 602 mmHg 94%
    07:00 +6°C° 0 mm 0 mps 603 mmHg 89%
    08:00 +8°C° 0 mm 1 mps 604 mmHg 84%
    09:00 +10°C° 0 mm 1 mps 605 mmHg 79%
    10:00 +10°C° 0 mm 1 mps 605 mmHg 76%
    11:00 +11°C° 0 mm 1 mps 605 mmHg 73%
    12:00 +12°C° 0 mm 1 mps 605 mmHg 70%
    13:00 +12°C° 0 mm 1 mps 605 mmHg 71%
    14:00 +12°C° 0 mm 1 mps 604 mmHg 72%
    15:00 +12°C° 0 mm 2 mps 604 mmHg 73%
    16:00 +10°C° 0 mm 1 mps 604 mmHg 79%
    17:00 +9°C° 0 mm 1 mps 603 mmHg 85%
    18:00 +8°C° 0 mm 1 mps 603 mmHg 91%
    19:00 +8°C° 0 mm 1 mps 603 mmHg 90%
    20:00 +8°C° 0 mm 1 mps 603 mmHg 89%
    21:00 +8°C° 0 mm 1 mps 603 mmHg 88%
    22:00 +7°C° 0 mm 1 mps 603 mmHg 87%
    23:00 +7°C° 0 mm 1 mps 602 mmHg 87%

    Day after tomorrow, 22 October, Tuesday

    Time Temperature Precipitation Wind Pressure Humidity
    00:00 +7°C° 0 mm 1 mps 602 mmHg 87%
    01:00 +7°C° 0 mm 1 mps 602 mmHg 86%
    02:00 +6°C° 0 mm 1 mps 602 mmHg 85%
    03:00 +6°C° 0 mm 1 mps 602 mmHg 85%
    04:00 +6°C° 0 mm 1 mps 601 mmHg 85%
    05:00 +5°C° 0 mm 1 mps 601 mmHg 86%
    06:00 +4°C° 0 mm 1 mps 601 mmHg 86%
    07:00 +6°C° 0 mm 1 mps 602 mmHg 78%
    08:00 +8°C° 0 mm 1 mps 603 mmHg 70%
    09:00 +10°C° 0 mm 1 mps 603 mmHg 61%
    10:00 +11°C° 0 mm 1 mps 604 mmHg 59%
    11:00 +12°C° 0 mm 1 mps 604 mmHg 57%
    12:00 +13°C° 0 mm 2 mps 605 mmHg 55%
    13:00 +13°C° 0 mm 2 mps 604 mmHg 57%
    14:00 +12°C° 0 mm 2 mps 604 mmHg 60%
    15:00 +12°C° 0 mm 2 mps 603 mmHg 63%
    16:00 +10°C° 0 mm 1 mps 603 mmHg 72%
    17:00 +9°C° 0 mm 1 mps 602 mmHg 80%
    18:00 +6°C° 0 mm 0 mps 602 mmHg 89%
    19:00 +6°C° 0 mm 0 mps 602 mmHg 89%
    20:00 +5°C° 0 mm 0 mps 602 mmHg 89%
    21:00 +5°C° 0 mm 0 mps 602 mmHg 89%
    22:00 +5°C° 0 mm 0 mps 601 mmHg 90%
    23:00 +4°C° 0 mm 0 mps 601 mmHg 91%

    23 October, Wednesday

    Time Temperature Precipitation Wind Pressure Humidity
    00:00 +4°C° 0 mm 0 mps 601 mmHg 91%
    01:00 +4°C° 0 mm 0 mps 601 mmHg 91%
    02:00 +4°C° 0 mm 0 mps 601 mmHg 91%
    03:00 +4°C° 0 mm 0 mps 601 mmHg 91%
    04:00 +4°C° 0 mm 0 mps 601 mmHg 89%
    05:00 +5°C° 0 mm 1 mps 601 mmHg 88%
    06:00 +5°C° 0 mm 1 mps 601 mmHg 86%
    07:00 +6°C° 0 mm 1 mps 602 mmHg 77%
    08:00 +8°C° 0 mm 1 mps 602 mmHg 68%
    09:00 +10°C° 0 mm 1 mps 603 mmHg 58%
    10:00 +11°C° 0 mm 1 mps 604 mmHg 55%
    11:00 +12°C° 0 mm 1 mps 604 mmHg 51%
    12:00 +13°C° 0 mm 1 mps 604 mmHg 48%
    13:00 +12°C° 0 mm 1 mps 604 mmHg 51%
    14:00 +12°C° 0 mm 1 mps 603 mmHg 55%
    15:00 +11°C° 0 mm 1 mps 603 mmHg 59%
    16:00 +10°C° 0 mm 1 mps 602 mmHg 68%
    17:00 +8°C° 0 mm 1 mps 602 mmHg 78%
    18:00 +6°C° 0 mm 0 mps 601 mmHg 87%
    19:00 +5°C° 0 mm 0 mps 601 mmHg 88%
    20:00 +6°C° 0 mm 1 mps 601 mmHg 89%
    21:00 +6°C° 0 mm 1 mps 601 mmHg 90%
    22:00 +6°C° 0 mm 1 mps 601 mmHg 90%
    23:00 +6°C° 0 mm 1 mps 601 mmHg 90%

    24 October, Thursday

    Time Temperature Precipitation Wind Pressure Humidity
    00:00 +6°C° 0 mm 1 mps 601 mmHg 89%
    01:00 +6°C° 0 mm 1 mps 601 mmHg 89%
    02:00 +6°C° 0 mm 1 mps 601 mmHg 89%
    03:00 +6°C° 0 mm 1 mps 601 mmHg 89%
    04:00 +5°C° 0 mm 1 mps 601 mmHg 90%
    05:00 +5°C° 0 mm 1 mps 600 mmHg 91%
    06:00 +3°C° 0 mm 0 mps 600 mmHg 92%
    07:00 +5°C° 0 mm 1 mps 601 mmHg 85%
    08:00 +7°C° 0 mm 1 mps 601 mmHg 78%
    09:00 +8°C° 0 mm 1 mps 602 mmHg 70%
    10:00 +8°C° 0 mm 2 mps 602 mmHg 66%
    11:00 +9°C° 0 mm 2 mps 602 mmHg 62%
    12:00 +10°C° 0 mm 2 mps 602 mmHg 58%
    13:00 +10°C° 0 mm 2 mps 602 mmHg 57%
    14:00 +10°C° 0 mm 2 mps 602 mmHg 56%
    15:00 +10°C° 0 mm 2 mps 602 mmHg 56%
    16:00 +9°C° 0 mm 1 mps 601 mmHg 66%
    17:00 +7°C° 0 mm 1 mps 600 mmHg 75%
    18:00 +5°C° 0 mm 1 mps 599 mmHg 85%
    19:00 +5°C° 0 mm 1 mps 599 mmHg 84%
    20:00 +5°C° 0 mm 1 mps 599 mmHg 83%
    21:00 +4°C° 0 mm 1 mps 599 mmHg 82%
    22:00 +4°C° 0 mm 1 mps 599 mmHg 80%
    23:00 +4°C° 0 mm 1 mps 599 mmHg 79%

    25 October, Friday

    Time Temperature Precipitation Wind Pressure Humidity
    00:00 +4°C° 0 mm 1 mps 598 mmHg 77%
    01:00 +4°C° 0 mm 1 mps 598 mmHg 77%
    02:00 +3°C° 0 mm 1 mps 598 mmHg 77%
    03:00 +3°C° 0 mm 1 mps 598 mmHg 77%
    04:00 +3°C° 0 mm 1 mps 598 mmHg 75%
    05:00 +3°C° 0 mm 1 mps 598 mmHg 73%
    06:00 +3°C° 0 mm 1 mps 598 mmHg 71%
    07:00 +5°C° 0 mm 1 mps 599 mmHg 64%
    08:00 +8°C° 0 mm 1 mps 600 mmHg 56%
    09:00 +10°C° 0 mm 1 mps 601 mmHg 49%
    10:00 +11°C° 0 mm 1 mps 601 mmHg 49%
    11:00 +10°C° 0 mm 2 mps 602 mmHg 48%
    12:00 +12°C° 0 mm 2 mps 602 mmHg 48%
    13:00 +12°C° 0 mm 2 mps 602 mmHg 50%
    14:00 +12°C° 0 mm 2 mps 601 mmHg 53%
    15:00 +12°C° 0 mm 1 mps 601 mmHg 55%
    16:00 +10°C° 0 mm 1 mps 600 mmHg 64%
    17:00 +8°C° 0 mm 1 mps 600 mmHg 72%
    18:00 +5°C° 0 mm 0 mps 599 mmHg 81%
    19:00 +5°C° 0 mm 0 mps 599 mmHg 81%
    20:00 +4°C° 0 mm 0 mps 599 mmHg 82%
    21:00 +4°C° 0 mm 0 mps 599 mmHg 82%
    22:00 +4°C° 0 mm 0 mps 598 mmHg 83%
    23:00 +4°C° 0 mm 1 mps 598 mmHg 83%
    Show more